This demonstration page uses our WeatherBlox Daily Observations layout. Learn more.

Left ArrowRight Arrow

Hourly Observations for May 17, 2022

Temp ( °F °C ) Dew Point ( °F °C ) Humidity (%) Winds ( mph kmh ) Pressure ( in mb ) Visibility ( mi km ) Precip ( " mm )
12:52 am 00:52 Clear 61 16.1 51 10.6 70 70 Calm 29.98 1015 10 16 0.00 0.00
1:52 am 01:52 Clear 58 14.4 50 10 75 75 Calm 29.98 1015 10 16 0.00 0.00
2:52 am 02:52 Clear 56 13.3 50 10 81 81 Calm 30.00 1016 10 16 0.00 0.00
3:52 am 03:52 Clear 57 13.9 51 10.6 81 81 S 7 11 29.99 1016 10 16 0.00 0.00
4:52 am 04:52 Clear 57 13.9 51 10.6 81 81 SE 8 13 29.98 1015 10 16 0.00 0.00
5:52 am 05:52 Clear 57 13.9 51 10.6 81 81 SSW 5 7 30.00 1016 10 16 0.00 0.00
6:52 am 06:52 Sunny 58 14.4 52 11.1 81 81 SSE 6 9 30.02 1017 10 16 0.00 0.00
7:52 am 07:52 Mostly Cloudy 61 16.1 54 12.2 78 78 S 8 13 30.02 1017 10 16 0.00 0.00
8:52 am 08:52 Sunny 64 17.8 57 13.9 78 78 SSE 10 17 30.02 1017 10 16 0.00 0.00
9:52 am 09:52 Sunny 67 19.4 59 15 76 76 SSE 12 19 30.01 1016 10 16 0.00 0.00
10:52 am 10:52 Sunny 69 20.6 59 15 70 70 SE 17 28 29.93 1014 10 16 0.00 0.00
11:52 am 11:52 Sunny 73 22.8 60 15.6 64 64 SSE 18 30 29.96 1015 10 16 0.00 0.00
12:52 pm 12:52 Mostly Sunny 73 22.8 58 14.4 59 59 SSE 18 30 29.94 1014 10 16 0.00 0.00
1:52 pm 13:52 Sunny 75 23.9 60 15.6 60 60 SSE 20 31 29.92 1013 10 16 0.00 0.00
2:52 pm 14:52 Sunny 76 24.4 61 16.1 60 60 S 12 19 29.93 1014 10 16 0.00 0.00
3:52 pm 15:52 Sunny 79 26.1 64 17.8 60 60 S 9 15 29.92 1013 10 16 0.00 0.00
4:52 pm 16:52 Sunny 80 26.7 64 17.8 58 58 S 16 26 29.89 1012 10 16 0.00 0.00
5:52 pm 17:52 Sunny 79 26.1 63 17.2 58 58 SSE 16 26 29.87 1012 10 16 0.00 0.00
6:52 pm 18:52 Sunny 76 24.4 63 17.2 64 64 SSE 12 19 29.86 1011 10 16 0.00 0.00
7:52 pm 19:52 Sunny 75 23.9 61 16.1 62 62 SSE 14 22 29.85 1011 10 16 0.00 0.00
8:52 pm 20:52 Clear 72 22.2 60 15.6 66 66 SSE 18 30 29.84 1011 10 16 0.00 0.00
9:52 pm 21:52 Clear 70 21.1 55 12.8 59 59 SSE 17 28 29.84 1011 10 16 0.00 0.00
10:52 pm 22:52 Mostly Clear 69 20.6 55 12.8 61 61 SSE 16 26 29.87 1012 10 16 0.00 0.00
11:52 pm 23:52 Clear 68 20 55 12.8 63 63 SSE 14 22 29.84 1011 10 16 0.00 0.00

Powered by AerisWeather